"Pseudo-MPEC" for P10SBxn

Created 2019 Oct 15 13:07:13 UT using Find_Orb

Click here for an explanation of pseudo-MPECs

 
 Astrometry: 
     P10SBxn  C2019 10 08_Ufn13QG9pEBaj`fAstrometry29a?mAmDYCcXPf]jA$8-7CTP9SF51
     P10SBxn  C2019 10 08M!DgA0()M$Pr]Nredacted;5p$!click-Hw1`**8SwEZRCGtT(7UF51
     P10SBxn  C2019 10 08Zh'r=htruwIa]-cAy?EPKhxhereEvh[\0cTZv,rQ0Y5=B0=9)biUF51
     P10SBxn  C2019 10 08*g'GVI)9YFG_D9fpkvOZ:Kj1dNs.)#O]^w:-Z-@.%`,?Ld#+DqWhF51
     P10SBxn ^C2019 10 09(uU)y2Y]q0QXj8ypXVfor-Q\c;9o90L(lGDG+xZ[+NfcX4XuD?Z)695
     P10SBxn ^C2019 10 09BNx58$=+KR0:2NO=o[@MQ.+L,K-A.)o,-0\l5RexplanationEFF695
     P10SBxn ^C2019 10 091NOOQDdKq;4VB@[O;iX0Ovr_2dOcOu#m$T7hZb]n?%hT.*D@nsqf695
     P10SBxn ^C2019 10 103]+bn7@CnhGI%i)B'Qa`?ooIm5A,^TjCpFla@5U.7XhZ;0alKHf@695
     P10SBxn ^C2019 10 10=5h,-/ml=7ig7[NWK]@bpbv1r^Xw`Dq#3_cAH0geGVR^lZp=6Y4R695
     P10SBxn ^C2019 10 10UyJ9W!yUrVi2t0Z*QFRaRjS3`p+POs(_L,x^-R9Z.(l\lgCs+Yc^695

Station data:
(695) Kitt Peak  (N31.958398 W111.594670)  US/Arizona.
(F51) Pan-STARRS 1, Haleakala  (N20.707235 W156.255910)  US/Hawaii.
   Observers N. Primak, A. Schultz, S. Watters, J. Thiel, T. Goggia. Measurer
   PS1 Science Consortium. 1.8-m Ritchey-Chrétien + CCD.

Orbital elements:  P10SBxn
   Perihelion 2019 Sep 7.886394 +/- 5.72 TT = 21:16:24 (JD 2458734.386394)
Epoch 2019 Oct 10.0 TT = JDT 2458766.5   Earth MOID: 0.4742   AutoNEOCP
M   6.68229477 +/- 1.9              (J2000 ecliptic)
n   0.20808297 +/- 0.0284           Peri.  105.13347 +/- 7
a   2.82040635 +/- 0.256            Node   250.34836 +/- 3.4
e   0.4841186 +/- 0.0298            Incl.    7.32131 +/- 0.6
P   4.74                   H 21.9   G  0.15   U 10.4  
q 1.45499496 +/- 0.0494    Q 4.18581773 +/- 0.425
From 10 observations 2019 Oct. 8-10 (39.1 hr); mean residual 0".10
Residuals in arcseconds: 
191008 F51  .06-  .02-    191009 695  .09-  .10-    191010 695  .16-  .04+    
191008 F51  .02-  .04+    191009 695  .10-  .06-    191010 695  .04+  .04-    
191008 F51  .10+  .04-    191009 695  .29+  .18+    
191008 F51  .07-  .01+    191010 695  .07+  .02-    

Ephemerides (geocentric):
Date (UTC) HH   RA              Dec         delta   r     elong  mag " sig PA
---- -- -- --  -------------   -----------  ------ ------ -----  --- ---- ---
2019 10 15 13  00 45 47.198   +22 42 10.89  .51853 1.5017 163.5 22.0 4.67 102
2019 10 15 14  00 45 47.727   +22 41 38.56  .51863 1.5018 163.5 22.0 4.68 103
2019 10 15 15  00 45 48.257   +22 41 06.21  .51874 1.5019 163.5 22.0 4.69 103
2019 10 15 16  00 45 48.788   +22 40 33.84  .51885 1.5020 163.6 22.0 4.70 103
2019 10 15 17  00 45 49.320   +22 40 01.45  .51896 1.5021 163.6 22.0 4.71 104
2019 10 15 18  00 45 49.854   +22 39 29.04  .51907 1.5022 163.6 22.0 4.72 104
2019 10 15 19  00 45 50.388   +22 38 56.61  .51918 1.5023 163.6 22.0 4.73 104
2019 10 15 20  00 45 50.924   +22 38 24.15  .51929 1.5024 163.6 22.0 4.74 104
2019 10 15 21  00 45 51.462   +22 37 51.68  .51940 1.5025 163.6 22.0 4.75 105
2019 10 15 22  00 45 52.000   +22 37 19.18  .51951 1.5026 163.6 22.0 4.75 105
2019 10 15 23  00 45 52.540   +22 36 46.66  .51962 1.5027 163.6 22.0 4.76 105
2019 10 16 00  00 45 53.081   +22 36 14.12  .51973 1.5028 163.6 22.0 4.77 106
2019 10 16 01  00 45 53.623   +22 35 41.57  .51984 1.5029 163.6 22.0 4.78 106
2019 10 16 02  00 45 54.167   +22 35 08.99  .51995 1.5030 163.6 22.0 4.79 107
2019 10 16 03  00 45 54.711   +22 34 36.39  .52006 1.5031 163.6 22.0 4.80 107
2019 10 16 04  00 45 55.258   +22 34 03.77  .52017 1.5032 163.6 22.0 4.80 107
2019 10 16 05  00 45 55.805   +22 33 31.13  .52029 1.5033 163.6 22.0 4.81 108
2019 10 16 06  00 45 56.354   +22 32 58.47  .52040 1.5034 163.6 22.0 4.82 108
2019 10 16 07  00 45 56.904   +22 32 25.79  .52051 1.5035 163.6 22.0 4.83 108
2019 10 16 08  00 45 57.455   +22 31 53.09  .52063 1.5036 163.6 22.0 4.84 109
2019 10 16 09  00 45 58.007   +22 31 20.37  .52074 1.5037 163.6 22.0 4.84 109
2019 10 16 10  00 45 58.561   +22 30 47.63  .52085 1.5038 163.6 22.0 4.85 110
2019 10 16 11  00 45 59.116   +22 30 14.87  .52097 1.5039 163.6 22.0 4.86 110
2019 10 16 12  00 45 59.673   +22 29 42.09  .52108 1.5040 163.6 22.0 4.87 111
2019 10 16 13  00 46 00.231   +22 29 09.29  .52120 1.5041 163.6 22.0 4.87 111
2019 10 16 14  00 46 00.790   +22 28 36.48  .52131 1.5042 163.6 22.0 4.88 111
2019 10 16 15  00 46 01.350   +22 28 03.64  .52142 1.5043 163.6 22.0 4.89 112
2019 10 16 16  00 46 01.912   +22 27 30.79  .52154 1.5044 163.6 22.0 4.90 112
2019 10 16 17  00 46 02.475   +22 26 57.91  .52166 1.5045 163.6 22.0 4.91 113
2019 10 16 18  00 46 03.039   +22 26 25.02  .52177 1.5046 163.6 22.0 4.91 113
2019 10 16 19  00 46 03.605   +22 25 52.11  .52189 1.5047 163.6 22.0 4.92 114
2019 10 16 20  00 46 04.172   +22 25 19.18  .52200 1.5049 163.6 22.0 4.93 114
2019 10 16 21  00 46 04.741   +22 24 46.23  .52212 1.5050 163.6 22.1 4.94 115
2019 10 16 22  00 46 05.311   +22 24 13.26  .52224 1.5051 163.6 22.1 4.95 115
2019 10 16 23  00 46 05.882   +22 23 40.28  .52236 1.5052 163.6 22.1 4.96 116
2019 10 17 00  00 46 06.454   +22 23 07.28  .52247 1.5053 163.6 22.1 4.97 116
2019 10 17 01  00 46 07.028   +22 22 34.25  .52259 1.5054 163.6 22.1 4.98 117
2019 10 17 02  00 46 07.604   +22 22 01.22  .52271 1.5055 163.6 22.1 4.99 117
2019 10 17 03  00 46 08.180   +22 21 28.16  .52283 1.5056 163.6 22.1 5.00 118
2019 10 17 04  00 46 08.758   +22 20 55.08  .52295 1.5057 163.6 22.1 5.01 118
2019 10 17 05  00 46 09.338   +22 20 21.99  .52307 1.5058 163.6 22.1 5.02 119
2019 10 17 06  00 46 09.919   +22 19 48.88  .52319 1.5059 163.6 22.1 5.03 119
2019 10 17 07  00 46 10.501   +22 19 15.75  .52331 1.5060 163.6 22.1 5.04 120
2019 10 17 08  00 46 11.084   +22 18 42.61  .52343 1.5061 163.6 22.1 5.06 121
2019 10 17 09  00 46 11.669   +22 18 09.45  .52355 1.5062 163.6 22.1 5.07 121
2019 10 17 10  00 46 12.256   +22 17 36.27  .52367 1.5063 163.6 22.1 5.08 122
2019 10 17 11  00 46 12.844   +22 17 03.07  .52379 1.5064 163.6 22.1 5.09 122
2019 10 17 12  00 46 13.433   +22 16 29.86  .52391 1.5065 163.6 22.1 5.11 123